Home   Weather   Germany   Seevetal   Past weeks
Flag for Germany

Past Weather in Seevetal, Lower Saxony, Germany — Yesterday and Last 2 Weeks

Currently: 41 °F. Partly sunny. (Weather station: Hamburg-Finkenwerder, Germany). See more current weather

Past Weather in Seevetal — Graph

°F

Seevetal Temperature Yesterday

Maximum temperature yesterday: 57 °F (at 1:50 pm)
Minimum temperature yesterday: 30 °F (at 5:20 am)
Average temperature yesterday: 42 °F

High & Low Weather Summary for the Past Weeks

 TemperatureHumidityPressure
High68 °F (Feb 22, 2:20 pm)100% (Feb 17, 11:50 pm)30.69 "Hg (Feb 17, 11:50 pm)
Low28 °F (Mar 2, 2:20 am)30% (Feb 22, 2:20 pm)29.71 "Hg (Feb 18, 8:20 pm)
Average45 °F81%30.26 "Hg
* Reported Feb 17 11:20 am — Mar 4 11:50 am, Seevetal. Weather by CustomWeather, © 2021

Note: Actual official high and low records may vary slightly from our data, if they occured in-between our weather recording intervals... More about our weather records

Seevetal Weather History for the Previous 24 Hours

Scroll right to see more
 ConditionsComfort  
Time TempWeatherWind HumidityBarometerVisibility
11:50 am
Thu, Mar 4
41 °FPartly sunny.8 mph81%30.07 "HgN/A
11:20 am41 °FPartly sunny.8 mph81%30.07 "HgN/A
10:50 am41 °FPartly sunny.9 mph81%30.07 "HgN/A
10:20 am39 °FPartly sunny.10 mph87%30.07 "HgN/A
9:50 am39 °FPartly sunny.9 mph81%30.07 "HgN/A
9:20 am39 °FPartly sunny.10 mph81%30.09 "HgN/A
8:50 am39 °FPartly sunny.13 mph81%30.09 "HgN/A
8:20 am39 °FPartly sunny.13 mph81%30.09 "HgN/A
7:50 am39 °FPartly sunny.12 mph81%30.09 "HgN/A
6:50 am37 °FPassing clouds.12 mph87%30.09 "HgN/A
6:20 am37 °FPassing clouds.10 mph87%30.09 "HgN/A
5:50 am37 °FMostly cloudy.10 mph87%30.09 "HgN/A
5:20 am36 °FMostly cloudy.13 mph93%30.12 "HgN/A
4:50 am36 °FLow clouds.14 mph100%30.12 "Hg6 mi
4:20 am36 °FLow clouds.13 mph93%30.12 "Hg6 mi
3:50 am36 °FMostly cloudy.12 mph100%30.15 "Hg5 mi
3:20 am36 °FLow clouds.12 mph100%30.15 "Hg3 mi
2:50 am36 °FLow clouds.14 mph100%30.15 "Hg2 mi
2:20 am36 °FLow clouds.14 mph100%30.15 "Hg2 mi
1:50 am36 °FLow clouds.10 mph100%30.18 "Hg1 mi
1:20 am37 °FLow clouds.17 mph93%30.18 "Hg2 mi
12:50 am37 °FLow clouds.16 mph93%30.18 "Hg2 mi
12:20 am37 °FLow clouds.15 mph93%30.18 "Hg2 mi
11:50 pm
Wed, Mar 3
37 °FLow clouds.16 mph93%30.18 "Hg2 mi
11:20 pm37 °FLow clouds.15 mph100%30.21 "Hg2 mi
10:50 pm39 °FLow clouds.14 mph93%30.21 "Hg2 mi
10:20 pm39 °FLow clouds.16 mph93%30.21 "Hg1 mi
9:50 pm39 °FLow clouds.15 mph93%30.21 "Hg1 mi
9:20 pm37 °FLow clouds.15 mph100%30.21 "Hg1 mi
8:50 pm39 °FLow clouds.15 mph93%30.21 "Hg1 mi
8:20 pm39 °FLow clouds.15 mph93%30.21 "Hg2 mi
7:50 pm41 °FFog.15 mph93%30.21 "Hg2 mi
7:20 pm43 °FFog.13 mph87%30.21 "Hg3 mi
6:50 pm45 °FClear.12 mph87%30.21 "Hg4 mi
6:20 pm46 °FClear.12 mph82%30.21 "Hg4 mi
5:50 pm48 °FClear.15 mph76%30.21 "Hg5 mi
5:20 pm50 °FClear.12 mph71%30.21 "Hg6 mi
4:50 pm52 °FSunny.13 mph67%30.21 "Hg10 mi
4:20 pm54 °FSunny.13 mph67%30.21 "Hg10 mi
3:50 pm55 °FSunny.13 mph63%30.21 "Hg10 mi
3:20 pm57 °FSunny.15 mph59%30.21 "Hg10 mi
2:50 pm57 °FSunny.12 mph55%30.21 "Hg10 mi
2:20 pm57 °FPassing clouds.10 mph51%30.24 "HgN/A
1:50 pm57 °FPassing clouds.6 mph51%30.24 "HgN/A
1:20 pm55 °FSunny.9 mph55%30.27 "Hg10 mi
12:50 pm54 °FPassing clouds.8 mph58%30.27 "HgN/A
12:20 pm54 °FPassing clouds.9 mph58%30.27 "HgN/A
Weather by CustomWeather, © 2021

See weather overview